Location: Clarion
(42.7316°N, 93.7330°W)
Time: 09:33:03
(UTC+00:00)

Cosmos 2366 rocket - Pass Details

Date: 22 April 2026
Orbit: 954 x 996 km, 82.9° (Epoch: 17 May)

Event Time Altitude Azimuth Distance (km) Brightness Sun altitude
Rises 01:30:50 0° 177° (S) 3,630 6.7 -5.4°
Reaches altitude 10° 01:33:20 10° 174° (S) 2,684 6.0 -5.9°
Maximum altitude 01:39:24 66° 94° (E) 1,037 4.0 -6.9°
Drops below altitude 10° 01:45:28 10° 13° (NNE) 2,692 6.5 -7.9°
Sets 01:47:59 0° 11° (N) 3,642 7.2 -8.3°
